Year,Month,Day,Hour,Minute,Value (Times are PST for temperature in C)
2018,03,15,00,00,2.40
2018,03,15,00,01,2.40
2018,03,15,00,02,2.40
2018,03,15,00,03,2.40
2018,03,15,00,04,2.40
2018,03,15,00,05,2.40
2018,03,15,00,06,2.40
2018,03,15,00,07,2.40
2018,03,15,00,08,2.40
2018,03,15,00,09,2.40
2018,03,15,00,10,2.40
2018,03,15,00,11,2.30
2018,03,15,00,12,2.30
2018,03,15,00,13,2.30
2018,03,15,00,14,2.30
2018,03,15,00,15,2.30
2018,03,15,00,16,2.30
2018,03,15,00,17,2.30
2018,03,15,00,18,2.30
2018,03,15,00,19,2.30
2018,03,15,00,20,2.30
2018,03,15,00,21,2.20
2018,03,15,00,22,2.20
2018,03,15,00,23,2.20
2018,03,15,00,24,2.20
2018,03,15,00,25,2.20
2018,03,15,00,26,2.20
2018,03,15,00,27,2.20
2018,03,15,00,28,2.20
2018,03,15,00,29,2.20
2018,03,15,00,30,2.20
2018,03,15,00,31,2.20
2018,03,15,00,32,2.20
2018,03,15,00,33,2.20
2018,03,15,00,34,2.20
2018,03,15,00,35,2.20
2018,03,15,00,36,2.20
2018,03,15,00,37,2.20
2018,03,15,00,38,2.20
2018,03,15,00,39,2.20
2018,03,15,00,40,2.20
2018,03,15,00,41,2.20
2018,03,15,00,42,2.20
2018,03,15,00,43,2.20
2018,03,15,00,44,2.20
2018,03,15,00,45,2.20
2018,03,15,00,46,2.20
2018,03,15,00,47,2.10
2018,03,15,00,48,2.10
2018,03,15,00,49,2.10
2018,03,15,00,50,2.00
2018,03,15,00,51,2.00
2018,03,15,00,52,2.00
2018,03,15,00,53,1.90
2018,03,15,00,54,1.90
2018,03,15,00,55,1.90
2018,03,15,00,56,1.90
2018,03,15,00,57,1.90
2018,03,15,00,58,1.80
2018,03,15,00,59,1.80
2018,03,15,01,00,1.80
2018,03,15,01,01,1.80
2018,03,15,01,02,1.80
2018,03,15,01,03,1.80
2018,03,15,01,04,1.80
2018,03,15,01,05,1.70
2018,03,15,01,06,1.70
2018,03,15,01,07,1.70
2018,03,15,01,08,1.70
2018,03,15,01,09,1.60
2018,03,15,01,10,1.60
2018,03,15,01,11,1.60
2018,03,15,01,12,1.60
2018,03,15,01,13,1.50
2018,03,15,01,14,1.50
2018,03,15,01,15,1.50
2018,03,15,01,16,1.50
2018,03,15,01,17,1.50
2018,03,15,01,18,1.50
2018,03,15,01,19,1.50
2018,03,15,01,20,1.50
2018,03,15,01,21,1.50
2018,03,15,01,22,1.50
2018,03,15,01,23,1.50
2018,03,15,01,24,1.50
2018,03,15,01,25,1.50
2018,03,15,01,26,1.50
2018,03,15,01,27,1.50
2018,03,15,01,28,1.50
2018,03,15,01,29,1.40
2018,03,15,01,30,1.40
2018,03,15,01,31,1.40
2018,03,15,01,32,1.40
2018,03,15,01,33,1.30
2018,03,15,01,34,1.30
2018,03,15,01,35,1.30
2018,03,15,01,36,1.30
2018,03,15,01,37,1.30
2018,03,15,01,38,1.30
2018,03,15,01,39,1.30
2018,03,15,01,40,1.30
2018,03,15,01,41,1.30
2018,03,15,01,42,1.30
2018,03,15,01,43,1.30
2018,03,15,01,44,1.30
2018,03,15,01,45,1.30
2018,03,15,01,46,1.30
2018,03,15,01,47,1.30
2018,03,15,01,48,1.30
2018,03,15,01,49,1.20
2018,03,15,01,50,1.20
2018,03,15,01,51,1.20
2018,03,15,01,52,1.20
2018,03,15,01,53,1.20
2018,03,15,01,54,1.10
2018,03,15,01,55,1.10
2018,03,15,01,56,1.10
2018,03,15,01,57,1.10
2018,03,15,01,58,1.10
2018,03,15,01,59,1.00
2018,03,15,02,00,1.00
2018,03,15,02,01,1.00
2018,03,15,02,02,1.00
2018,03,15,02,03,1.00
2018,03,15,02,04,1.00
2018,03,15,02,05,1.00
2018,03,15,02,06,1.10
2018,03,15,02,07,1.10
2018,03,15,02,08,1.10
2018,03,15,02,09,1.10
2018,03,15,02,10,1.10
2018,03,15,02,11,1.10
2018,03,15,02,12,1.20
2018,03,15,02,13,1.20
2018,03,15,02,14,1.20
2018,03,15,02,15,1.20
2018,03,15,02,16,1.30
2018,03,15,02,17,1.30
2018,03,15,02,18,1.30
2018,03,15,02,19,1.30
2018,03,15,02,20,1.30
2018,03,15,02,21,1.30
2018,03,15,02,22,1.30
2018,03,15,02,23,1.30
2018,03,15,02,24,1.30
2018,03,15,02,25,1.30
2018,03,15,02,26,1.30
2018,03,15,02,27,1.30
2018,03,15,02,28,1.30
2018,03,15,02,29,1.30
2018,03,15,02,30,1.30
2018,03,15,02,31,1.30
2018,03,15,02,32,1.30
2018,03,15,02,33,1.30
2018,03,15,02,34,1.30
2018,03,15,02,35,1.30
2018,03,15,02,36,1.30
2018,03,15,02,37,1.30
2018,03,15,02,38,1.30
2018,03,15,02,39,1.30
2018,03,15,02,40,1.30
2018,03,15,02,41,1.20
2018,03,15,02,42,1.20
2018,03,15,02,43,1.20
2018,03,15,02,44,1.20
2018,03,15,02,45,1.20
2018,03,15,02,46,1.20
2018,03,15,02,47,1.20
2018,03,15,02,48,1.20
2018,03,15,02,49,1.20
2018,03,15,02,50,1.20
2018,03,15,02,51,1.20
2018,03,15,02,52,1.20
2018,03,15,02,53,1.10
2018,03,15,02,54,1.10
2018,03,15,02,55,1.10
2018,03,15,02,56,1.10
2018,03,15,02,57,1.10
2018,03,15,02,58,1.10
2018,03,15,02,59,1.10
2018,03,15,03,00,1.00
2018,03,15,03,01,1.00
2018,03,15,03,02,1.00
2018,03,15,03,03,1.00
2018,03,15,03,04,1.00
2018,03,15,03,05,1.00
2018,03,15,03,06,1.00
2018,03,15,03,07,1.00
2018,03,15,03,08,0.90
2018,03,15,03,09,0.90
2018,03,15,03,10,0.90
2018,03,15,03,11,0.90
2018,03,15,03,12,0.90
2018,03,15,03,13,0.90
2018,03,15,03,14,0.80
2018,03,15,03,15,0.80
2018,03,15,03,16,0.80
2018,03,15,03,17,0.80
2018,03,15,03,18,0.80
2018,03,15,03,19,0.80
2018,03,15,03,20,0.80
2018,03,15,03,21,0.80
2018,03,15,03,22,0.80
2018,03,15,03,23,0.80
2018,03,15,03,24,0.80
2018,03,15,03,25,0.80
2018,03,15,03,26,0.80
2018,03,15,03,27,0.80
2018,03,15,03,28,0.80
2018,03,15,03,29,0.80
2018,03,15,03,30,0.80
2018,03,15,03,31,0.80
2018,03,15,03,32,0.80
2018,03,15,03,33,0.90
2018,03,15,03,34,0.90
2018,03,15,03,35,0.90
2018,03,15,03,36,1.00
2018,03,15,03,37,1.00
2018,03,15,03,38,1.10
2018,03,15,03,39,1.10
2018,03,15,03,40,1.10
2018,03,15,03,41,1.10
2018,03,15,03,42,1.10
2018,03,15,03,43,1.20
2018,03,15,03,44,1.20
2018,03,15,03,45,1.20
2018,03,15,03,46,1.20
2018,03,15,03,47,1.20
2018,03,15,03,48,1.20
2018,03,15,03,49,1.30
2018,03,15,03,50,1.30
2018,03,15,03,51,1.30
2018,03,15,03,52,1.30
2018,03,15,03,53,1.30
2018,03,15,03,54,1.30
2018,03,15,03,55,1.30
2018,03,15,03,56,1.30
2018,03,15,03,57,1.30
2018,03,15,03,58,1.30
2018,03,15,03,59,1.30
2018,03,15,04,00,1.30
2018,03,15,04,01,1.30
2018,03,15,04,02,1.30
2018,03,15,04,03,1.30
2018,03,15,04,04,1.30
2018,03,15,04,05,1.30
2018,03,15,04,06,1.30
2018,03,15,04,07,1.30
2018,03,15,04,08,1.30
2018,03,15,04,09,1.30
2018,03,15,04,10,1.30
2018,03,15,04,11,1.30
2018,03,15,04,12,1.30
2018,03,15,04,13,1.30
2018,03,15,04,14,1.30
2018,03,15,04,15,1.30
2018,03,15,04,16,1.30
2018,03,15,04,17,1.30
2018,03,15,04,18,1.30
2018,03,15,04,19,1.30
2018,03,15,04,20,1.30
2018,03,15,04,21,1.30
2018,03,15,04,22,1.30
2018,03,15,04,23,1.30
2018,03,15,04,24,1.30
2018,03,15,04,25,1.40
2018,03,15,04,26,1.40
2018,03,15,04,27,1.40
2018,03,15,04,28,1.40
2018,03,15,04,29,1.40
2018,03,15,04,30,1.40
2018,03,15,04,31,1.40
2018,03,15,04,32,1.40
2018,03,15,04,33,1.40
2018,03,15,04,34,1.40
2018,03,15,04,35,1.40
2018,03,15,04,36,1.40
2018,03,15,04,37,1.50
2018,03,15,04,38,1.50
2018,03,15,04,39,1.50
2018,03,15,04,40,1.50
2018,03,15,04,41,1.50
2018,03,15,04,42,1.50
2018,03,15,04,43,1.50
2018,03,15,04,44,1.60
2018,03,15,04,45,1.60
2018,03,15,04,46,1.60
2018,03,15,04,47,1.60
2018,03,15,04,48,1.60
2018,03,15,04,49,1.60
2018,03,15,04,50,1.60
2018,03,15,04,51,1.60
2018,03,15,04,52,1.60
2018,03,15,04,53,1.70
2018,03,15,04,54,1.70
2018,03,15,04,55,1.70
2018,03,15,04,56,1.70
2018,03,15,04,57,1.70
2018,03,15,04,58,1.70
2018,03,15,04,59,1.70
2018,03,15,05,00,1.70
2018,03,15,05,01,1.70
2018,03,15,05,02,1.70
2018,03,15,05,03,1.70
2018,03,15,05,04,1.70
2018,03,15,05,05,1.70
2018,03,15,05,06,1.70
2018,03,15,05,07,1.70
2018,03,15,05,08,1.70
2018,03,15,05,09,1.70
2018,03,15,05,10,1.70
2018,03,15,05,11,1.70
2018,03,15,05,12,1.80
2018,03,15,05,13,1.80
2018,03,15,05,14,1.80
2018,03,15,05,15,1.80
2018,03,15,05,16,1.80
2018,03,15,05,17,1.80
2018,03,15,05,18,1.80
2018,03,15,05,19,1.80
2018,03,15,05,20,1.80
2018,03,15,05,21,1.80
2018,03,15,05,22,1.80
2018,03,15,05,23,1.80
2018,03,15,05,24,1.80
2018,03,15,05,25,1.80
2018,03,15,05,26,1.80
2018,03,15,05,27,1.80
2018,03,15,05,28,1.90
2018,03,15,05,29,1.90
2018,03,15,05,30,1.90
2018,03,15,05,31,1.90
2018,03,15,05,32,1.90
2018,03,15,05,33,1.90
2018,03,15,05,34,1.90
2018,03,15,05,35,1.90
2018,03,15,05,36,1.90
2018,03,15,05,37,1.90
2018,03,15,05,38,1.90
2018,03,15,05,39,1.90
2018,03,15,05,40,1.90
2018,03,15,05,41,1.90
2018,03,15,05,42,1.90
2018,03,15,05,43,1.90
2018,03,15,05,44,1.90
2018,03,15,05,45,1.90
2018,03,15,05,46,1.90
2018,03,15,05,47,1.90
2018,03,15,05,48,1.90
2018,03,15,05,49,1.90
2018,03,15,05,50,1.90
2018,03,15,05,51,1.90
2018,03,15,05,52,1.90
2018,03,15,05,53,1.90
2018,03,15,05,54,1.90
2018,03,15,05,55,1.90
2018,03,15,05,56,1.90
2018,03,15,05,57,1.90
2018,03,15,05,58,2.00
2018,03,15,05,59,2.00
2018,03,15,06,00,2.00
2018,03,15,06,01,2.00
2018,03,15,06,02,2.00
2018,03,15,06,03,2.00
2018,03,15,06,04,2.00
2018,03,15,06,05,2.00
2018,03,15,06,06,2.00
2018,03,15,06,07,2.00
2018,03,15,06,08,2.00
2018,03,15,06,09,2.00
2018,03,15,06,10,2.00
2018,03,15,06,11,2.00
2018,03,15,06,12,2.00
2018,03,15,06,13,2.00
2018,03,15,06,14,2.00
2018,03,15,06,15,2.00
2018,03,15,06,16,2.00
2018,03,15,06,17,2.00
2018,03,15,06,18,2.00
2018,03,15,06,19,2.00
2018,03,15,06,20,2.00
2018,03,15,06,21,2.00
2018,03,15,06,22,2.00
2018,03,15,06,23,2.00
2018,03,15,06,24,2.00
2018,03,15,06,25,2.00
2018,03,15,06,26,2.00
2018,03,15,06,27,2.00
2018,03,15,06,28,2.00
2018,03,15,06,29,2.00
2018,03,15,06,30,2.00
2018,03,15,06,31,2.00
2018,03,15,06,32,2.00
2018,03,15,06,33,2.10
2018,03,15,06,34,2.10
2018,03,15,06,35,2.10
2018,03,15,06,36,2.10
2018,03,15,06,37,2.10
2018,03,15,06,38,2.10
2018,03,15,06,39,2.10
2018,03,15,06,40,2.10
2018,03,15,06,41,2.10
2018,03,15,06,42,2.10
2018,03,15,06,43,2.10
2018,03,15,06,44,2.20
2018,03,15,06,45,2.20
2018,03,15,06,46,2.20
2018,03,15,06,47,2.20
2018,03,15,06,48,2.20
2018,03,15,06,49,2.20
2018,03,15,06,50,2.20
2018,03,15,06,51,2.20
2018,03,15,06,52,2.20
2018,03,15,06,53,2.20
2018,03,15,06,54,2.20
2018,03,15,06,55,2.20
2018,03,15,06,56,2.20
2018,03,15,06,57,2.20
2018,03,15,06,58,2.30
2018,03,15,06,59,2.30
2018,03,15,07,00,2.30
2018,03,15,07,01,2.30
2018,03,15,07,02,2.30
2018,03,15,07,03,2.30
2018,03,15,07,04,2.30
2018,03,15,07,05,2.30
2018,03,15,07,06,2.30
2018,03,15,07,07,2.30
2018,03,15,07,08,2.30
2018,03,15,07,09,2.30
2018,03,15,07,10,2.30
2018,03,15,07,11,2.30
2018,03,15,07,12,2.30
2018,03,15,07,13,2.40
2018,03,15,07,14,2.40
2018,03,15,07,15,2.40
2018,03,15,07,16,2.40
2018,03,15,07,17,2.40
2018,03,15,07,18,2.40
2018,03,15,07,19,2.40
2018,03,15,07,20,2.40
2018,03,15,07,21,2.40
2018,03,15,07,22,2.40
2018,03,15,07,23,2.40
2018,03,15,07,24,2.40
2018,03,15,07,25,2.40
2018,03,15,07,26,2.40
2018,03,15,07,27,2.40
2018,03,15,07,28,2.50
2018,03,15,07,29,2.50
2018,03,15,07,30,2.50
2018,03,15,07,31,2.50
2018,03,15,07,32,2.50
2018,03,15,07,33,2.50
2018,03,15,07,34,2.50
2018,03,15,07,35,2.50
2018,03,15,07,36,2.50
2018,03,15,07,37,2.50
2018,03,15,07,38,2.50
2018,03,15,07,39,2.50
2018,03,15,07,40,2.50
2018,03,15,07,41,2.50
2018,03,15,07,42,2.50
2018,03,15,07,43,2.50
2018,03,15,07,44,2.50
2018,03,15,07,45,2.50
2018,03,15,07,46,2.50
2018,03,15,07,47,2.50
2018,03,15,07,48,2.60
2018,03,15,07,49,2.60
2018,03,15,07,50,2.60
2018,03,15,07,51,2.60
2018,03,15,07,52,2.60
2018,03,15,07,53,2.60
2018,03,15,07,54,2.60
2018,03,15,07,55,2.60
2018,03,15,07,56,2.70
2018,03,15,07,57,2.70
2018,03,15,07,58,2.70
2018,03,15,07,59,2.70
2018,03,15,08,00,2.70
2018,03,15,08,01,2.70
2018,03,15,08,02,2.70
2018,03,15,08,03,2.70
2018,03,15,08,04,2.70
2018,03,15,08,05,2.70
2018,03,15,08,06,2.70
2018,03,15,08,07,2.70
2018,03,15,08,08,2.70
2018,03,15,08,09,2.80
2018,03,15,08,10,2.80
2018,03,15,08,11,2.80
2018,03,15,08,12,2.80
2018,03,15,08,13,2.80
2018,03,15,08,14,2.80
2018,03,15,08,15,2.80
2018,03,15,08,16,2.80
2018,03,15,08,17,2.90
2018,03,15,08,18,2.90
2018,03,15,08,19,2.90
2018,03,15,08,20,2.90
2018,03,15,08,21,2.90
2018,03,15,08,22,3.00
2018,03,15,08,23,3.00
2018,03,15,08,24,3.10
2018,03,15,08,25,3.10
2018,03,15,08,26,3.10
2018,03,15,08,27,3.10
2018,03,15,08,28,3.10
2018,03,15,08,29,3.10
2018,03,15,08,30,3.10
2018,03,15,08,31,3.10
2018,03,15,08,32,3.10
2018,03,15,08,33,3.20
2018,03,15,08,34,3.20
2018,03,15,08,35,3.20
2018,03,15,08,36,3.20
2018,03,15,08,37,3.20
2018,03,15,08,38,3.20
2018,03,15,08,39,3.20
2018,03,15,08,40,3.20
2018,03,15,08,41,3.30
2018,03,15,08,42,3.30
2018,03,15,08,43,3.30
2018,03,15,08,44,3.30
2018,03,15,08,45,3.30
2018,03,15,08,46,3.40
2018,03,15,08,47,3.40
2018,03,15,08,48,3.40
2018,03,15,08,49,3.40
2018,03,15,08,50,3.40
2018,03,15,08,51,3.40
2018,03,15,08,52,3.40
2018,03,15,08,53,3.50
2018,03,15,08,54,3.50
2018,03,15,08,55,3.50
2018,03,15,08,56,3.50
2018,03,15,08,57,3.50
2018,03,15,08,58,3.50
2018,03,15,08,59,3.50
2018,03,15,09,00,3.50
2018,03,15,09,01,3.60
2018,03,15,09,02,3.60
2018,03,15,09,03,3.60
2018,03,15,09,04,3.60
2018,03,15,09,05,3.60
2018,03,15,09,06,3.70
2018,03,15,09,07,3.70
2018,03,15,09,08,3.70
2018,03,15,09,09,3.70
2018,03,15,09,10,3.70
2018,03,15,09,11,3.80
2018,03,15,09,12,3.80
2018,03,15,09,13,3.80
2018,03,15,09,14,3.80
2018,03,15,09,15,3.90
2018,03,15,09,16,3.90
2018,03,15,09,17,3.90
2018,03,15,09,18,3.90
2018,03,15,09,19,3.90
2018,03,15,09,20,3.90
2018,03,15,09,21,3.90
2018,03,15,09,22,4.00
2018,03,15,09,23,4.10
2018,03,15,09,24,4.10
2018,03,15,09,25,4.20
2018,03,15,09,26,4.20
2018,03,15,09,27,4.30
2018,03,15,09,28,4.30
2018,03,15,09,29,4.30
2018,03,15,09,30,4.40
2018,03,15,09,31,4.40
2018,03,15,09,32,4.50
2018,03,15,09,33,4.50
2018,03,15,09,34,4.60
2018,03,15,09,35,4.60
2018,03,15,09,36,4.70
2018,03,15,09,37,4.70
2018,03,15,09,38,4.70
2018,03,15,09,39,4.80
2018,03,15,09,40,4.80
2018,03,15,09,41,4.80
2018,03,15,09,42,4.90
2018,03,15,09,43,4.90
2018,03,15,09,44,5.00
2018,03,15,09,45,5.00
2018,03,15,09,46,5.10
2018,03,15,09,47,5.10
2018,03,15,09,48,5.10
2018,03,15,09,49,5.10
2018,03,15,09,50,5.20
2018,03,15,09,51,5.20
2018,03,15,09,52,5.30
2018,03,15,09,53,5.30
2018,03,15,09,54,5.40
2018,03,15,09,55,5.40
2018,03,15,09,56,5.40
2018,03,15,09,57,5.40
2018,03,15,09,58,5.40
2018,03,15,09,59,5.50
2018,03,15,10,00,5.50
2018,03,15,10,01,5.60
2018,03,15,10,02,5.70
2018,03,15,10,03,5.70
2018,03,15,10,04,5.80
2018,03,15,10,05,5.80
2018,03,15,10,06,5.80
2018,03,15,10,07,5.90
2018,03,15,10,08,5.90
2018,03,15,10,09,6.00
2018,03,15,10,10,6.10
2018,03,15,10,11,6.10
2018,03,15,10,12,6.20
2018,03,15,10,13,6.20
2018,03,15,10,14,6.20
2018,03,15,10,15,6.30
2018,03,15,10,16,6.30
2018,03,15,10,17,6.40
2018,03,15,10,18,6.40
2018,03,15,10,19,6.50
2018,03,15,10,20,6.60
2018,03,15,10,21,6.60
2018,03,15,10,22,6.70
2018,03,15,10,23,6.70
2018,03,15,10,24,6.70
2018,03,15,10,25,6.70
2018,03,15,10,26,6.70
2018,03,15,10,27,6.70
2018,03,15,10,28,6.80
2018,03,15,10,29,6.80
2018,03,15,10,30,6.90
2018,03,15,10,31,6.90
2018,03,15,10,32,7.00
2018,03,15,10,33,7.00
2018,03,15,10,34,7.10
2018,03,15,10,35,7.20
2018,03,15,10,36,7.30
2018,03,15,10,37,7.40
2018,03,15,10,38,7.50
2018,03,15,10,39,7.60
2018,03,15,10,40,7.70
2018,03,15,10,41,7.70
2018,03,15,10,42,7.70
2018,03,15,10,43,7.70
2018,03,15,10,44,7.80
2018,03,15,10,45,7.80
2018,03,15,10,46,7.80
2018,03,15,10,47,7.80
2018,03,15,10,48,7.80
2018,03,15,10,49,7.80
2018,03,15,10,50,7.80
2018,03,15,10,51,7.70
2018,03,15,10,52,7.70
2018,03,15,10,53,7.70
2018,03,15,10,54,7.70
2018,03,15,10,55,7.70
2018,03,15,10,56,7.70
2018,03,15,10,57,7.70
2018,03,15,10,58,7.70
2018,03,15,10,59,7.70
2018,03,15,11,00,7.70
2018,03,15,11,01,7.80
2018,03,15,11,02,7.80
2018,03,15,11,03,7.90
2018,03,15,11,04,8.00
2018,03,15,11,05,8.00
2018,03,15,11,06,8.00
2018,03,15,11,07,8.00
2018,03,15,11,08,8.00
2018,03,15,11,09,8.10
2018,03,15,11,10,8.10
2018,03,15,11,11,8.10
2018,03,15,11,12,8.10
2018,03,15,11,13,8.10
2018,03,15,11,14,8.10
2018,03,15,11,15,8.10
2018,03,15,11,16,8.10
2018,03,15,11,17,8.10
2018,03,15,11,18,8.10
2018,03,15,11,19,8.10
2018,03,15,11,20,8.10
2018,03,15,11,21,8.10
2018,03,15,11,22,8.10
2018,03,15,11,23,8.10
2018,03,15,11,24,8.10
2018,03,15,11,25,8.10
2018,03,15,11,26,8.10
2018,03,15,11,27,8.10
2018,03,15,11,28,8.20
2018,03,15,11,29,8.20
2018,03,15,11,30,8.20
2018,03,15,11,31,8.30
2018,03,15,11,32,8.30
2018,03,15,11,33,8.30
2018,03,15,11,34,8.30
2018,03,15,11,35,8.40
2018,03,15,11,36,8.50
2018,03,15,11,37,8.60
2018,03,15,11,38,8.70
2018,03,15,11,39,8.80
2018,03,15,11,40,8.90
2018,03,15,11,41,9.00
2018,03,15,11,42,9.10
2018,03,15,11,43,9.20
2018,03,15,11,44,9.30
2018,03,15,11,45,9.40
2018,03,15,11,46,9.50
2018,03,15,11,47,9.60
2018,03,15,11,48,9.60
2018,03,15,11,49,9.60
2018,03,15,11,50,9.60
2018,03,15,11,51,9.60
2018,03,15,11,52,9.60
2018,03,15,11,53,9.50
2018,03,15,11,54,9.50
2018,03,15,11,55,9.40
2018,03,15,11,56,9.40
2018,03,15,11,57,9.30
2018,03,15,11,58,9.30
2018,03,15,11,59,9.30
2018,03,15,12,00,9.30
2018,03,15,12,01,9.30
2018,03,15,12,02,9.30
2018,03,15,12,03,9.30
2018,03,15,12,04,9.30
2018,03,15,12,05,9.30
2018,03,15,12,06,9.40
2018,03,15,12,07,9.50
2018,03,15,12,08,9.50
2018,03,15,12,09,9.50
2018,03,15,12,10,9.50
2018,03,15,12,11,9.50
2018,03,15,12,12,9.60
2018,03,15,12,13,9.60
2018,03,15,12,14,9.70
2018,03,15,12,15,9.80
2018,03,15,12,16,9.90
2018,03,15,12,17,9.90
2018,03,15,12,18,9.90
2018,03,15,12,19,10.00
2018,03,15,12,20,10.10
2018,03,15,12,21,10.10
2018,03,15,12,22,10.10
2018,03,15,12,23,10.10
2018,03,15,12,24,10.20
2018,03,15,12,25,10.30
2018,03,15,12,26,10.30
2018,03,15,12,27,10.40
2018,03,15,12,28,10.40
2018,03,15,12,29,10.40
2018,03,15,12,30,10.40
2018,03,15,12,31,10.40
2018,03,15,12,32,10.40
2018,03,15,12,33,10.40
2018,03,15,12,34,10.40
2018,03,15,12,35,10.40
2018,03,15,12,36,10.50
2018,03,15,12,37,10.50
2018,03,15,12,38,10.60
2018,03,15,12,39,10.60
2018,03,15,12,40,10.50
2018,03,15,12,41,10.40
2018,03,15,12,42,10.40
2018,03,15,12,43,10.40
2018,03,15,12,44,10.40
2018,03,15,12,45,10.50
2018,03,15,12,46,10.60
2018,03,15,12,47,10.60
2018,03,15,12,48,10.60
2018,03,15,12,49,10.70
2018,03,15,12,50,10.70
2018,03,15,12,51,10.80
2018,03,15,12,52,10.90
2018,03,15,12,53,11.00
2018,03,15,12,54,11.10
2018,03,15,12,55,11.10
2018,03,15,12,56,11.10
2018,03,15,12,57,10.90
2018,03,15,12,58,10.70
2018,03,15,12,59,10.60
2018,03,15,13,00,10.60
2018,03,15,13,01,10.60
2018,03,15,13,02,10.60
2018,03,15,13,03,10.60
2018,03,15,13,04,10.60
2018,03,15,13,05,10.70
2018,03,15,13,06,10.70
2018,03,15,13,07,10.70
2018,03,15,13,08,10.80
2018,03,15,13,09,10.80
2018,03,15,13,10,10.90
2018,03,15,13,11,11.00
2018,03,15,13,12,11.00
2018,03,15,13,13,11.00
2018,03,15,13,14,10.90
2018,03,15,13,15,10.90
2018,03,15,13,16,11.00
2018,03,15,13,17,11.00
2018,03,15,13,18,11.10
2018,03,15,13,19,11.10
2018,03,15,13,20,11.20
2018,03,15,13,21,11.20
2018,03,15,13,22,11.30
2018,03,15,13,23,11.30
2018,03,15,13,24,11.40
2018,03,15,13,25,11.40
2018,03,15,13,26,11.50
2018,03,15,13,27,11.60
2018,03,15,13,28,11.70
2018,03,15,13,29,11.80
2018,03,15,13,30,11.80
2018,03,15,13,31,11.80
2018,03,15,13,32,11.80
2018,03,15,13,33,11.90
2018,03,15,13,34,12.00
2018,03,15,13,35,12.10
2018,03,15,13,36,12.10
2018,03,15,13,37,12.20
2018,03,15,13,38,12.20
2018,03,15,13,39,12.20
2018,03,15,13,40,12.20
2018,03,15,13,41,12.20
2018,03,15,13,42,12.30
2018,03,15,13,43,12.30
2018,03,15,13,44,12.30
2018,03,15,13,45,12.30
2018,03,15,13,46,12.40
2018,03,15,13,47,12.40
2018,03,15,13,48,12.50
2018,03,15,13,49,12.50
2018,03,15,13,50,12.50
2018,03,15,13,51,12.50
2018,03,15,13,52,12.50
2018,03,15,13,53,12.50
2018,03,15,13,54,12.50
2018,03,15,13,55,12.40
2018,03,15,13,56,12.40
2018,03,15,13,57,12.30
2018,03,15,13,58,12.30
2018,03,15,13,59,12.40
2018,03,15,14,00,12.40
2018,03,15,14,01,12.50
2018,03,15,14,02,12.50
2018,03,15,14,03,12.50
2018,03,15,14,04,12.60
2018,03,15,14,05,12.60
2018,03,15,14,06,12.60
2018,03,15,14,07,12.60
2018,03,15,14,08,12.60
2018,03,15,14,09,12.60
2018,03,15,14,10,12.60
2018,03,15,14,11,12.70
2018,03,15,14,12,12.60
2018,03,15,14,13,12.50
2018,03,15,14,14,12.40
2018,03,15,14,15,12.20
2018,03,15,14,16,12.10
2018,03,15,14,17,12.00
2018,03,15,14,18,12.00
2018,03,15,14,19,12.00
2018,03,15,14,20,12.00
2018,03,15,14,21,12.00
2018,03,15,14,22,12.00
2018,03,15,14,23,12.10
2018,03,15,14,24,12.00
2018,03,15,14,25,12.00
2018,03,15,14,26,11.90
2018,03,15,14,27,11.80
2018,03,15,14,28,11.80
2018,03,15,14,29,11.90
2018,03,15,14,30,11.90
2018,03,15,14,31,12.00
2018,03,15,14,32,12.00
2018,03,15,14,33,12.10
2018,03,15,14,34,12.20
2018,03,15,14,35,12.30
2018,03,15,14,36,12.50
2018,03,15,14,37,12.50
2018,03,15,14,38,12.60
2018,03,15,14,39,12.70
2018,03,15,14,40,12.80
2018,03,15,14,41,12.80
2018,03,15,14,42,12.80
2018,03,15,14,43,12.90
2018,03,15,14,44,12.90
2018,03,15,14,45,12.90
2018,03,15,14,46,13.00
2018,03,15,14,47,13.00
2018,03,15,14,48,13.10
2018,03,15,14,49,13.10
2018,03,15,14,50,13.10
2018,03,15,14,51,13.10
2018,03,15,14,52,13.10
2018,03,15,14,53,13.10
2018,03,15,14,54,13.20
2018,03,15,14,55,13.20
2018,03,15,14,56,13.20
2018,03,15,14,57,13.20
2018,03,15,14,58,13.20
2018,03,15,14,59,13.10
2018,03,15,15,00,13.10
2018,03,15,15,01,13.20
2018,03,15,15,02,13.10
2018,03,15,15,03,13.20
2018,03,15,15,04,13.20
2018,03,15,15,05,13.20
2018,03,15,15,06,13.20
2018,03,15,15,07,13.00
2018,03,15,15,08,12.80
2018,03,15,15,09,12.60
2018,03,15,15,10,12.50
2018,03,15,15,11,12.30
2018,03,15,15,12,12.00
2018,03,15,15,13,11.90
2018,03,15,15,14,11.90
2018,03,15,15,15,11.90
2018,03,15,15,16,11.90
2018,03,15,15,17,11.90
2018,03,15,15,18,12.00
2018,03,15,15,19,12.00
2018,03,15,15,20,12.10
2018,03,15,15,21,12.10
2018,03,15,15,22,12.20
2018,03,15,15,23,12.10
2018,03,15,15,24,12.00
2018,03,15,15,25,12.00
2018,03,15,15,26,12.10
2018,03,15,15,27,12.10
2018,03,15,15,28,12.10
2018,03,15,15,29,12.10
2018,03,15,15,30,12.10
2018,03,15,15,31,12.10
2018,03,15,15,32,12.10
2018,03,15,15,33,12.10
2018,03,15,15,34,12.20
2018,03,15,15,35,12.20
2018,03,15,15,36,12.30
2018,03,15,15,37,12.30
2018,03,15,15,38,12.30
2018,03,15,15,39,12.30
2018,03,15,15,40,12.30
2018,03,15,15,41,12.20
2018,03,15,15,42,12.20
2018,03,15,15,43,12.20
2018,03,15,15,44,12.10
2018,03,15,15,45,12.20
2018,03,15,15,46,12.10
2018,03,15,15,47,12.10
2018,03,15,15,48,12.00
2018,03,15,15,49,12.00
2018,03,15,15,50,12.00
2018,03,15,15,51,12.00
2018,03,15,15,52,12.00
2018,03,15,15,53,12.00
2018,03,15,15,54,12.00
2018,03,15,15,55,12.10
2018,03,15,15,56,12.10
2018,03,15,15,57,12.20
2018,03,15,15,58,12.20
2018,03,15,15,59,12.30
2018,03,15,16,00,12.30
2018,03,15,16,01,12.40
2018,03,15,16,02,12.50
2018,03,15,16,03,12.50
2018,03,15,16,04,12.60
2018,03,15,16,05,12.60
2018,03,15,16,06,12.60
2018,03,15,16,07,12.60
2018,03,15,16,08,12.60
2018,03,15,16,09,12.70
2018,03,15,16,10,12.70
2018,03,15,16,11,12.80
2018,03,15,16,12,12.90
2018,03,15,16,13,13.00
2018,03,15,16,14,13.00
2018,03,15,16,15,13.10
2018,03,15,16,16,13.10
2018,03,15,16,17,13.20
2018,03,15,16,18,13.20
2018,03,15,16,19,13.20
2018,03,15,16,20,13.20
2018,03,15,16,21,13.20
2018,03,15,16,22,13.20
2018,03,15,16,23,13.20
2018,03,15,16,24,13.20
2018,03,15,16,25,13.20
2018,03,15,16,26,13.20
2018,03,15,16,27,13.10
2018,03,15,16,28,13.10
2018,03,15,16,29,13.10
2018,03,15,16,30,13.00
2018,03,15,16,31,12.90
2018,03,15,16,32,12.80
2018,03,15,16,33,12.80
2018,03,15,16,34,12.90
2018,03,15,16,35,12.90
2018,03,15,16,36,13.00
2018,03,15,16,37,13.10
2018,03,15,16,38,13.10
2018,03,15,16,39,13.10
2018,03,15,16,40,13.10
2018,03,15,16,41,13.10
2018,03,15,16,42,13.10
2018,03,15,16,43,13.10
2018,03,15,16,44,13.10
2018,03,15,16,45,13.10
2018,03,15,16,46,13.10
2018,03,15,16,47,13.10
2018,03,15,16,48,13.10
2018,03,15,16,49,13.20
2018,03,15,16,50,13.20
2018,03,15,16,51,13.20
2018,03,15,16,52,13.20
2018,03,15,16,53,13.20
2018,03,15,16,54,13.30
2018,03,15,16,55,13.30
2018,03,15,16,56,13.20
2018,03,15,16,57,13.10
2018,03,15,16,58,13.10
2018,03,15,16,59,13.10
2018,03,15,17,00,13.10
2018,03,15,17,01,13.10
2018,03,15,17,02,13.10
2018,03,15,17,03,13.10
2018,03,15,17,04,13.20
2018,03,15,17,05,13.20
2018,03,15,17,06,13.30
2018,03,15,17,07,13.30
2018,03,15,17,08,13.30
2018,03,15,17,09,13.30
2018,03,15,17,10,13.20
2018,03,15,17,11,13.20
2018,03,15,17,12,13.20
2018,03,15,17,13,13.20
2018,03,15,17,14,13.20
2018,03,15,17,15,13.20
2018,03,15,17,16,13.20
2018,03,15,17,17,13.30
2018,03,15,17,18,13.30
2018,03,15,17,19,13.30
2018,03,15,17,20,13.30
2018,03,15,17,21,13.30
2018,03,15,17,22,13.20
2018,03,15,17,23,13.20
2018,03,15,17,24,13.10
2018,03,15,17,25,13.00
2018,03,15,17,26,13.00
2018,03,15,17,27,13.00
2018,03,15,17,28,13.00
2018,03,15,17,29,13.00
2018,03,15,17,30,13.10
2018,03,15,17,31,13.10
2018,03,15,17,32,13.00
2018,03,15,17,33,13.00
2018,03,15,17,34,12.90
2018,03,15,17,35,12.80
2018,03,15,17,36,12.80
2018,03,15,17,37,12.70
2018,03,15,17,38,12.60
2018,03,15,17,39,12.50
2018,03,15,17,40,12.40
2018,03,15,17,41,12.40
2018,03,15,17,42,12.30
2018,03,15,17,43,12.30
2018,03,15,17,44,12.20
2018,03,15,17,45,12.20
2018,03,15,17,46,12.10
2018,03,15,17,47,12.00
2018,03,15,17,48,11.90
2018,03,15,17,49,11.80
2018,03,15,17,50,11.80
2018,03,15,17,51,11.70